Tucson Davis Monthan, AZ

6:21 AM MST on December 09, 2019 (GMT -0700)
Davis-Monthan Air Force Base

Weather History for KDMA - October, 2019

Change the Weather History Date:

Friday, October 25, 2019

  Actual Average Record
Temperature  
Mean Temperature 67 °F -  
Max Temperature 77 °F 81 °F 95 °F (2017)
Min Temperature 57 °F 52 °F 37 °F (1956)
Cooling Degree Days 2    
Growing Degree Days 17 (Base 50)    
Moisture  
Dew Point 17 °F    
Average Humidity 15    
Maximum Humidity 25    
Minimum Humidity 10    
Precipitation  
Precipitation 0.00 in - - ()
Sea Level Pressure  
Sea Level Pressure 30.02 in    
Wind  
Wind Speed 12 mph (East)    
Max Wind Speed 23 mph    
Max Gust Speed 30 mph    
Visibility 10 miles    
Events      
Averages and records for this station are not official NWS values.
T = Trace of Precipitation, MM = Missing Value Source: NWS Daily Summary

Daily Weather History Graph

Daily Weather History Graph

Search for Another Location

Airport or City:

Astronomy

Oct. 25, 2019 Rise Set
Actual Time 6:34 AM MST 5:40 PM MST
Civil Twilight 6:09 AM MST 6:05 PM MST
Nautical Twilight 5:40 AM MST 6:33 PM MST
Astronomical Twilight 5:12 AM MST 7:02 PM MST
Moon 3:37 AM MST (10/25) 4:30 PM MST (10/25)
Length of Visible Light 11h 55m
Length of Day
11h 05m
Waning Crescent, 8% of the Moon is Illuminated
Oct 25
Waning Crescent
Oct 27
New
Nov 4
First Quarter
Nov 12
Full
Nov 19
Last Quarter

Hourly Weather History & Observations

Time (MST) Temp. Dew Point Humidity Pressure Visibility Wind Dir Wind Speed Gust Speed Precip Events Conditions
12:58 AM 58.5 °F 1.9 °F 10% 29.99 in 10.0 mi ESE 12.7 mph - N/A   Clear
1:58 AM 58.8 °F 8.1 °F 13% 30.00 in 10.0 mi ENE 11.5 mph - N/A   Clear
2:58 AM 61.9 °F 18.0 °F 18% 29.99 in 10.0 mi NE 16.1 mph - N/A   Clear
3:58 AM 59.2 °F 21.4 °F 23% 30.02 in 10.0 mi South 8.1 mph - N/A   Clear
4:58 AM 57.7 °F 21.2 °F 24% 30.03 in 10.0 mi ESE 5.8 mph - N/A   Clear
5:58 AM 57.6 °F 21.9 °F 25% 30.06 in 10.0 mi East 10.4 mph - N/A   Clear
6:58 AM 57.2 °F 20.7 °F 24% 30.07 in 10.0 mi ESE 11.5 mph - N/A   Clear
7:58 AM 61.0 °F 19.6 °F 20% 30.09 in 10.0 mi SE 6.9 mph - N/A   Clear
8:58 AM 64.8 °F 20.3 °F 18% 30.11 in 10.0 mi Calm Calm - N/A   Clear
9:58 AM 68.4 °F 18.9 °F 15% 30.11 in 10.0 mi ENE 4.6 mph - N/A   Clear
10:44 AM 71.6 °F 17.6 °F 13% 30.09 in 10.0 mi East 17.3 mph 24.2 mph N/A   Clear
10:45 AM 71.6 °F 17.6 °F 13% 30.09 in 10.0 mi SE 12.7 mph 24.2 mph N/A   Clear
10:58 AM 70.9 °F 17.6 °F 13% 30.08 in 10.0 mi SE 11.5 mph 20.7 mph N/A   Clear
10:59 AM 71.6 °F 17.6 °F 13% 30.08 in 10.0 mi ENE 16.1 mph 25.3 mph N/A   Clear
11:00 AM 71.6 °F 17.6 °F 13% 30.08 in 10.0 mi NNE 15.0 mph 25.3 mph N/A   Clear
11:09 AM 71.6 °F 17.6 °F 13% 30.08 in 10.0 mi ENE 12.7 mph 25.3 mph N/A   Clear
11:58 AM 73.6 °F 17.8 °F 12% 30.04 in 10.0 mi SE 12.7 mph - N/A   Clear
12:21 PM 73.4 °F 17.6 °F 12% 30.03 in 10.0 mi ENE 13.8 mph 20.7 mph N/A   Clear
12:58 PM 75.6 °F 17.4 °F 11% 30.01 in 10.0 mi NNE 16.1 mph 28.8 mph N/A   Clear
1:58 PM 76.3 °F 15.6 °F 10% 29.98 in 10.0 mi NE 23.0 mph 29.9 mph N/A   Clear
2:58 PM 77.0 °F 16.2 °F 10% 29.96 in 10.0 mi NNE 19.6 mph - N/A   Clear
3:58 PM 76.5 °F 18.0 °F 11% 29.94 in 10.0 mi NNE 20.7 mph 24.2 mph N/A   Clear
4:58 PM 74.5 °F 14.4 °F 10% 29.95 in 10.0 mi NE 13.8 mph - N/A   Clear
5:58 PM 69.6 °F 12.7 °F 11% 29.94 in 10.0 mi NNE 12.7 mph - N/A   Clear
6:58 PM 63.5 °F 15.1 °F 15% 29.96 in 10.0 mi ESE 5.8 mph - N/A   Clear
7:58 PM 68.0 °F 13.5 °F 12% 29.95 in 10.0 mi East 17.3 mph - N/A   Clear
8:58 PM 66.2 °F 15.6 °F 14% 29.95 in 10.0 mi ESE 19.6 mph - N/A   Clear
9:58 PM 65.1 °F 14.7 °F 14% 29.95 in 10.0 mi ESE 13.8 mph - N/A   Clear
10:58 PM 62.1 °F 16.7 °F 17% 29.96 in 10.0 mi SE 16.1 mph - N/A   Clear
11:58 PM 59.2 °F 16.9 °F 19% 29.95 in 10.0 mi SE 13.8 mph - N/A   Clear